Simultaneous Nadir Overpasses (SNOs) Predictions

Prediction of SNOs between NOAA-20 and METOP-B Satellite Orbit:

Table of predicted SNOs for the next 14.0 days since TLE Epoch: 6/1/2018
Index Date (NOAA-20) Time (NOAA-20) Lat,Lon (NOAA-20) SZA (NOAA-20 ) Date (METOP-B) Time (METOP-B) Lat,Lon (METOP-B) SZA (METOP-B ) Distance(km) Time Diff (sec)
1 06/15/2018 12:59:28 73.40, -24.58 50.29 06/15/2018 13:00:36 73.37, -22.39 50.13 69.82 68
2 06/15/2018 13:50:11 -73.35, 142.87 129.78 06/15/2018 13:51:20 -73.28, 144.73 129.96 59.92 69
3 06/15/2018 14:40:52 73.11, -49.30 49.96 06/15/2018 14:42:04 73.05, -48.44 49.83 28.80 72
4 06/15/2018 15:31:35 -73.05, 118.14 130.11 06/15/2018 15:32:47 -73.00, 118.79 130.21 21.95 72
5 06/15/2018 16:22:17 72.87, -74.15 49.69 06/15/2018 16:23:29 72.87, -74.15 49.68 0.72 72
6 06/15/2018 17:13:01 -72.86, 93.17 130.33 06/15/2018 17:14:11 -72.88, 93.19 130.32 2.28 70
7 06/15/2018 18:03:47 72.87, -99.54 49.69 06/15/2018 18:04:51 72.85, -99.54 49.65 2.78 64
8 06/15/2018 18:54:31 -72.87, 67.78 130.32 06/15/2018 18:55:33 -72.86, 67.80 130.35 1.31 62
9 06/15/2018 19:45:16 72.83,-124.83 49.64 06/15/2018 19:46:13 72.82,-124.93 49.63 3.48 57
10 06/15/2018 20:36:00 -72.82, 42.50 130.37 06/15/2018 20:36:55 -72.83, 42.41 130.37 3.15 55
11 06/15/2018 21:26:46 72.84,-150.22 49.65 06/15/2018 21:27:34 72.85,-150.22 49.65 1.51 48




NCC Satellite Simultaneous Nadir Overpasses (SNOs) Prediction Service
